Погода в Артыне

Россия / Омская область     56°09′20″N   74°45′28″E
темп.,
°C
ветер,
м/с
пор.,
м/с
влажн.,
%
обл.,
%
осадки,
мм/ч
давл.,
гПа
погр.,
м
8 марта, пн
пн800:00−6юв81694100 2.3 1005693
03:00+1ююз101797100 3.3 9991082
06:000ююз101797100 4.8 9971052
09:00−2з91296100 1.2 998720
12:00−8зсз71188100 1.6 1002654
15:00−8зсз7118599 0.0 1006797
18:00−9з6118799 0.1 1010700
21:00−13зюз5129097 0.0 1012364
9 марта, вт
вт900:00−14юз4119399 0.0 1015294
03:00−14ююз5119396 0.0 1015293
06:00−13ююз6129498 0.3 1015525
09:00−14ююз61293100 0.1 1015439
12:00−11ююз61093100 0.1 1015492
15:00−8ююз61191100 0.1 1014624
18:00−7ююз71392100 0.4 1013724
21:00−7ююз81591100 0.4 1012783
10 марта, ср
ср1000:00−8юз71491100 0.4 1011652
03:00−9юз51193100 0.1 1012401
06:00−11юз3896100 0.1 1012203
09:00−11ююз3597100 0.0 1012149
12:00−8ю2494100 0.1 1011269
15:00−6юв2391100 0.0 1008406
18:00−7в3596100 0.9 1004319
21:00−7всв3696100 1.9 1001299
11 марта, чт
чт1100:00−9с2396100 2.4 100030
03:00−10зсз2396100 0.2 100147
06:00−10з229699 0.4 100243
09:00−9юз2396100 0.4 1003157
12:00−7ююз589399 0.8 1004548
15:00−8юз81189100 0.4 1004856
18:00−11юз71287100 0.5 1005923
21:00−12ююз41194100 0.1 1005536
12 марта, пт
пт1200:00−12юз4995100 0.3 1005447
03:00−14юз5109398 0.1 1006410
06:00−19з5119499 0.1 1009411
09:00−20з61192100 0.1 1012599
12:00−20з61090100 0.1 1016640
15:00−19з61085100 0.0 1018827
18:00−20з4989100 0.0 1020476
21:00−24з339327 0.0 102331